Tucson Davis Monthan, AZ

3:52 PM MST on April 30, 2017 (GMT -0700)
Davis-Monthan Air Force Base

Weather History for KDMA - January, 2014

Change the Weather History Date:

Wednesday, January 8, 2014

  Actual Average Record
Temperature  
Mean Temperature 54 °F -  
Max Temperature 65 °F 62 °F 82 °F (1969)
Min Temperature 42 °F 37 °F 20 °F (1971)
Degree Days  
Heating Degree Days 12    
Growing Degree Days 4 (Base 50)    
Moisture  
Dew Point 21 °F    
Average Humidity 32    
Maximum Humidity 46    
Minimum Humidity 16    
Precipitation  
Precipitation 0.00 in - - ()
Sea Level Pressure  
Sea Level Pressure 30.04 in    
Wind  
Wind Speed 4 mph (SE)    
Max Wind Speed 10 mph    
Max Gust Speed -    
Visibility 10 miles    
Events      
Averages and records for this station are not official NWS values.
T = Trace of Precipitation, MM = Missing Value Source: NWS Daily Summary

Daily Weather History Graph

Daily Weather History Graph

Search for Another Location

Airport or City:

Trip Planner

Search our weather history database for the weather conditions in past years. The results will help you decide how hot, cold, wet, or windy it might be!

Date:

Astronomy

Jan. 08, 2014 Rise Set
Actual Time 7:25 AM MST 5:35 PM MST
Civil Twilight 6:58 AM MST 6:02 PM MST
Nautical Twilight 6:28 AM MST 6:32 PM MST
Astronomical Twilight 5:58 AM MST 7:02 PM MST
Moon 12:19 PM MST (1/8) 12:46 AM MST (1/8)
Length of Visible Light 11h 03m
Length of Day
10h 10m
First Quarter, 56% of the Moon is Illuminated
Jan 8
First Quarter
Jan 15
Full
Jan 23
Last Quarter
Jan 30
New
Feb 6
First Quarter

Hourly Weather History & Observations

Time (MST) Temp. Windchill Dew Point Humidity Pressure Visibility Wind Dir Wind Speed Gust Speed Precip Events Conditions
12:58 AM 50.2 °F - 22.5 °F 34% 30.01 in 10.0 mi Calm Calm - N/A   Mostly Cloudy
1:58 AM 48.2 °F - 23.9 °F 39% 30.00 in 10.0 mi SE 10.4 mph - N/A   Clear
2:58 AM 48.2 °F - 22.6 °F 37% 30.00 in 10.0 mi NE 1.2 mph - N/A   Partly Cloudy
3:58 AM 45.9 °F 42.3 °F 23.5 °F 41% 30.00 in 10.0 mi SE 6.9 mph - N/A   Partly Cloudy
4:58 AM 45.7 °F 42.7 °F 22.8 °F 41% 30.00 in 10.0 mi SE 5.8 mph - N/A   Clear
5:58 AM 44.1 °F 39.5 °F 22.5 °F 42% 30.01 in 10.0 mi ESE 8.1 mph - N/A   Clear
6:55 AM 43.2 °F - 22.1 °F 43% 30.05 in 10.0 mi Calm Calm - N/A   Clear
7:55 AM 42.3 °F 37.9 °F 22.8 °F 46% 30.06 in 10.0 mi SE 6.9 mph - N/A   Clear
8:55 AM 48.2 °F - 23.0 °F 37% 30.10 in 10.0 mi Calm Calm - N/A   Clear
9:55 AM 53.6 °F - 23.0 °F 30% 30.11 in 10.0 mi Calm Calm - N/A   Clear
10:55 AM 59.0 °F - 23.0 °F 25% 30.10 in 10.0 mi Calm Calm - N/A   Clear
11:55 AM 60.6 °F - 21.9 °F 23% 30.05 in 10.0 mi Calm Calm - N/A   Clear
12:55 PM 63.7 °F - 19.8 °F 19% 30.01 in 10.0 mi Variable 3.5 mph - N/A   Clear
1:55 PM 65.1 °F - 19.6 °F 17% 29.98 in 10.0 mi NW 8.1 mph - N/A   Clear
2:55 PM 65.8 °F - 18.7 °F 16% 29.98 in 10.0 mi NW 8.1 mph - N/A   Clear
3:55 PM 65.8 °F - 17.4 °F 16% 29.97 in 10.0 mi NW 9.2 mph - N/A   Clear
4:55 PM 63.7 °F - 18.3 °F 17% 29.99 in 10.0 mi NW 10.4 mph - N/A   Clear
5:55 PM 58.5 °F - 19.0 °F 22% 30.01 in 10.0 mi NW 9.2 mph - N/A   Clear
6:55 PM 57.9 °F - 18.5 °F 22% 30.05 in 10.0 mi Calm Calm - N/A   Clear
7:55 PM 50.4 °F - 20.5 °F 31% 30.07 in 10.0 mi Calm Calm - N/A   Clear
8:55 PM 47.1 °F - 21.6 °F 36% 30.09 in 10.0 mi Calm Calm - N/A   Clear
9:55 PM 44.1 °F 40.8 °F 23.0 °F 43% 30.10 in 10.0 mi SSE 5.8 mph - N/A   Clear
10:55 PM 44.1 °F 40.8 °F 21.9 °F 42% 30.07 in 10.0 mi SE 5.8 mph - N/A   Clear
11:55 PM 42.8 °F 40.1 °F 21.9 °F 44% 30.06 in 10.0 mi SSE 4.6 mph - N/A   Clear